loading
|
DECAYED
Showing default

POLARIS DAWN, 61042 (Decayed)

Orbit data source: Space-Track

POLARIS DAWN, 61042 was a payload satellite owned by SpaceX (US) in LEO that was launched on Tue, 10 Sep 2024 UTC via an FALCON 9 launch vehicle from the Air Force Eastern Test Range (AFETR). Payloads include a variety of satellites, spacecraft, and rockets equipped with specific instruments for various scientific and technological missions. These include communications satellites like Starlink; space stations such as the ISS; scientific satellites like the Hubble; Earth observation satellites from companies like Planet Labs, Umbra, and HawkEye 360; GPS; miniature CubeSats for education and research; and military/defense satellites.

Next visibility unknown
Next conjunction unknown
No 3D visualization available: RSO Decayed
POLARIS DAWN details
Identifier
61042, 2024-161A
Orbit
Decayed
Last TLE update1 month ago
Origin
Flag of USSpaceX (US)
ManufacturerSpaceX
MissionDecayed spacecraft
Bus & MotorDRAGON CM, Unknown motor
Mass~13,000 kg wet, ~9,500 kg dry
Launch date (UTC)
2024-09-10 (1 month ago)
Launch vehicle
FALCON 9
Launch site
Air Force Eastern Test Range (AFETR)
Object type
Payload
Rocket body
Debris
Shape & HBRUnknown
Radar Cross SectionLarge (>1 m²)

Expand to show TLE details & history

TLE from 1 month ago
0 POLARIS DAWN
1 61042U 24161A   24258.80224095  .00515806  11082-4  43826-3 0  9995
2 61042  51.6521   5.1737 0197386  64.5271 297.6008 15.83847020   670
Epoch: 2024-09-14T19:15Z
Definitive object data (Epoch: 2024-09-14T19:15:13.618Z)
Latitude0.00001°
Longitude82.11223°
Altitude261.154 km
Speed7.786 km/s
True Right ascension00h 20m 41s
True Declination0° 00' 00"
Sunlit
Object was in full shadow at TLE epoch
Predictive object data (real-time)
Latitude-10.74421°
Longitude-85.44288°
Altitude294.587 km
Speed7.697 km/s
Apparent Right ascension16h 12m 35s
Apparent Declination-41° 16' 58"
Sunlit
Object is in daylight
Predictive observer data (real-time)
Local Sidereal Time09:03:39
Azimuth116.84° SE
Elevation-36.45°
Doppler factor1
Orbital elements
Apogee452.3 km
Perigee187.873 km
Semi-major axis6,698.224 km
Eccentricity0.0197386
Inclination51.6521°
RAAN5.1737°
Arg. of periapsis64.5271°
True anomaly295.57359°
Mean anomaly297.6008°
Eccentric anomaly296.58947°
Mean motion3.95917 °/min
BSTAR0.00043826
Period90.93 mins
No data available
No data available
Other satellites on launch #161 in the year 2024 (2024-09-10 UTC)

POLARIS DAWN Visibility forecast

Observer location: 39.9160978°, -105.1181434

This satellite is decayed
Span
Click to sort rows by Start time (UTC) header in descending order
Start Az.
Max El. time (UTC)
Max El. Az.
Max El.
End time (UTC)
End Az.